Regional Weather Roundup
Issued by NWS

Home | Current Version | Previous Version | Graphics & Text | Print | Product List | Glossary On
Versions: 1 2 3 4 5 6 7 8 9 10 11 12 13 14 15 16 17 18 19 20 21 22 23 24 25 26 27 28 29 30 31 32 33 34 35 36 37 38 39 40 41 42 43 44 45 46 47 48 49 50
000
ASUS43 KLOT 061108
RWRIL

ILLINOIS REGIONAL WEATHER ROUNDUP
NATIONAL WEATHER SERVICE CHICAGO/ROMEOVILLE IL
500 AM CST SAT FEB 06 2016

NOTE: "FAIR" INDICATES FEW OR NO CLOUDS BELOW 12,000 FEET WITH NO
SIGNIFICANT WEATHER AND/OR OBSTRUCTIONS TO VISIBILITY.

* THESE STATIONS ARE NOT UNDER NWS QUALITY CONTROL. THEY ALSO MAY NOT
  REPORT WEATHER SUCH AS PRECIPITATION OR FOG.

ILZ001-002-007-009-015-016-024-061200-
NORTHWEST ILLINOIS

CITY           SKY/WX    TMP DP  RH WIND       PRES   REMARKS
MOLINE         CLOUDY    30  22  72 SW3       30.27R
STERLING*      CLEAR     23  19  86 CALM      30.25S
SAVANNA*       MOCLDY    26  23  88 S5        30.26S WCI  21
$$

ILZ003-004-008-010-011-017-018-061200-
NORTH CENTRAL ILLINOIS

CITY           SKY/WX    TMP DP  RH WIND       PRES   REMARKS
ROCKFORD       CLEAR     26  21  81 SW5       30.28R WCI  20
FREEPORT*      CLEAR     25  22  89 SW8       30.26F WCI  16
ROCHELLE*      PTCLDY    25  23  92 S3        30.27R FOG
DE KALB*       PTCLDY    24  21  91 S5        30.26S FOG     WCI  18
PERU*          PTCLDY    26  25  96 S5        30.29S WCI  20
$$

ILZ005-006-012>014-019>023-061200-
NORTHEAST ILLINOIS

CITY           SKY/WX    TMP DP  RH WIND       PRES   REMARKS
CHICAGO-OHARE  CLOUDY    27  22  81 SW6       30.27S WCI  20
CHICAGO-MIDWAY CLOUDY    28  21  75 SW6       30.29S WCI  22
AURORA         CLOUDY    27  23  85 S6        30.27F FOG     WCI  20
LANSING*       CLOUDY    24  22  90 SW5       30.29S WCI  18
WAUKEGAN       CLOUDY    27  23  85 SW7       30.25S WCI  19
DUPAGE AIRPORT CLOUDY    26  21  81 SW8       30.26S WCI  18
KANKAKEE*      CLEAR     22  20  91 S5        30.30S WCI  16
WHEELING       CLOUDY    27  22  81 SW7       30.28S WCI  19
MORRIS*        CLOUDY    25  23  89 CALM      30.28S
ROMEOVILLE*    CLOUDY    25  22  87 SW5       30.29S WCI  20
NORTHERLY ISL    N/A     28  22  78 S6          N/A  WCI  22
$$

LMZ740>746-061200-
SOUTHERN LAKE MICHIGAN

STATION/POSITION SKY/WX   TEMP    WIND        PRES    VSBY  WAVE
                          AIR SEA DIR/SP/G                  HT/PER
                          (F)     (DEG/KT/KT) (MB)    (MI)  (FT/S)
HARRISON CRIB              30     250/ 11/ 12   N/A
BURNHAM HARBOR             28     250/  4/  8   N/A
CALUMET HARBOR             27     220/  4/  8 1024.9R
BURNS HARBOR               26     200/ 10/ 13 1026.1F
MICHIGAN CITY              25     170/  7/  8   N/A
$$

ILZ025>027-034>036-040-047-049-050-058-095>099-061200-
WEST-CENTRAL ILLINOIS

CITY           SKY/WX    TMP DP  RH WIND       PRES   REMARKS
QUINCY         CLEAR     29  18  63 S5        30.26F WCI  24
GALESBURG*     MOCLDY    26  23  89 S6        30.27R WCI  19
MACOMB*        CLEAR     28  23  83 CALM      30.29S
JACKSONVILLE*  CLEAR     30  24  79 S6        30.29F WCI  24
PITTSFIELD*    PTCLDY    27  24  89 SE3       30.29F
$$

ILZ028>032-037-038-041>044-048-051>054-059>061-061200-
CENTRAL ILLINOIS

CITY           SKY/WX    TMP DP  RH WIND       PRES   REMARKS
PONTIAC        CLOUDY    25  24  96 CALM      30.30S
BLOOMINGTON    CLOUDY    26  26 100 SW10      30.29F WCI  16
DECATUR        CLOUDY    29  25  85 S6        30.31S WCI  23
PEORIA         CLOUDY    27  23  85 CALM      30.30R
LACON*         PTCLDY    26  21  83 CALM      30.29R
LINCOLN*       MOCLDY    29  28  94 S5        30.30F WCI  24
SPRINGFIELD    PTCLDY    30  24  78 S6        30.30F WCI  24
TAYLORVILLE    CLOUDY    30  27  86 S7        30.31F WCI  23
$$

ILZ033-039-045-046-055>057-062-063-061200-
EAST-CENTRAL ILLINOIS

CITY           SKY/WX    TMP DP  RH WIND       PRES   REMARKS
CHAMPAIGN      MOCLDY    24  21  88 S5        30.30F WCI  18
MATTOON        CLOUDY    27  23  85 S8        30.31S WCI  19
PARIS*         CLEAR     23  22  93 S5        30.33F WCI  17
$$

ILZ079-100>102-061200-
SOUTHWEST ILLINOIS

CITY           SKY/WX    TMP DP  RH WIND       PRES   REMARKS
ALTON          PTCLDY    28  23  79 CALM      30.31S
BELLEVILLE     CLEAR     25  22  91 CALM      30.30F
CAHOKIA*       CLEAR     26  21  81 CALM      30.31F
SPARTA*        CLEAR     26  23  88 CALM      30.32S
$$

ILZ064>066-069>071-074>076-080>082-084>086-088>090-092>094-061200-
SOUTH-CENTRAL ILLINOIS

CITY           SKY/WX    TMP DP  RH WIND       PRES   REMARKS
CARBONDALE     CLEAR     24  20  84 CALM      30.32S
CAIRO*         CLEAR     25  25 100 CALM      30.34S
EFFINGHAM*     CLOUDY    28  27  96 E5        30.34S WCI  23
MARION         CLEAR     25  23  93 CALM      30.33S
MT. VERNON     CLOUDY    28  19  69 CALM      30.33S
CENTRALIA*     CLOUDY    30  25  82 SE3       30.31F
SALEM*         CLOUDY    31  24  77 E3        30.32F
METROPOLIS*    CLEAR     24  24  97 CALM      30.35S
$$

ILZ067-068-072-073-078-083-087-091-061200-
SOUTHEAST ILLINOIS

CITY           SKY/WX    TMP DP  RH WIND       PRES   REMARKS
LAWRENCEVILLE  CLOUDY    23  21  92 E5        30.35S FOG     WCI  17
FLORA*         CLOUDY    28  25  91 E3        30.34F
FAIRFIELD*     CLOUDY    28  25  86 CALM      30.32F
HARRISBURG*    PTCLDY    24  22  89 CALM      30.34S
ROBINSON*      CLOUDY    21  20  95 CALM      30.36S
CARMI*         PTCLDY    28  25  89 NE3       30.33F
$$

ABBREVIATIONS USED IN REMARKS
   TC - TEMPERATURE IN CELSIUS
  WCI - WIND CHILL INDEX
   HX - HEAT INDEX
  VSB - VISIBILITY
$$




USA.gov is the U.S. government's official web portal to all federal, state and local government web resources and services.